Regional Weather Roundup
Issued by NWS

Home | Current Version | Previous Version | Text Only | Print | Product List | Glossary On
Versions: 1 2 3 4 5 6 7 8 9 10 11 12 13 14 15 16 17 18 19 20 21 22 23 24 25 26 27 28 29 30 31 32 33 34 35 36 37 38 39 40 41 42 43 44 45 46 47 48 49 50
000
ASUS44 KFWD 241715
RWRTX
NORTH TEXAS HOURLY WEATHER ROUNDUP
NATIONAL WEATHER SERVICE FORT WORTH TX
1200 PM CDT MON JUL 24 2017

NOTE: "FAIR" INDICATES FEW OR NO CLOUDS BELOW 12,000 FEET WITH NO
SIGNIFICANT WEATHER AND/OR OBSTRUCTIONS TO VISIBILITY.

TXZ118-119-241800-
DALLAS/FORT WORTH METROPLEX

CITY           SKY/WX    TMP DP  RH WIND       PRES   REMARKS
DFW AIRPORT    PTSUNNY   84  74  71 S7        29.99F HX  91
DALLAS LOVE    PTSUNNY   82  73  74 SE8       30.01S
FTW MEACHAM    FAIR      84  75  74 CALM      30.00F HX  92
DAL-EXECUTIVE  CLOUDY    81  74  79 E7        30.01S
FTW-ALLIANCE   FAIR      86  73  65 VRB5      30.00F HX  93
FTW-NAS-JRB    PTSUNNY   83  72  69 VRB6      30.01F
FTW-SPINKS     MOSUNNY   82  73  74 SE3       30.03F
ARLINGTON      FAIR      80  74  81 VRB5      30.01F
GRAND PRAIRIE  SUNNY     81  72  74 SE7       30.03S
ADDISON        SUNNY     79  72  78 SE6       30.02F
MESQUITE       PTSUNNY   77  72  83 E3        30.02S
LANCASTER      FAIR      80  72  77 SE3       30.03R
$$

TXZ091>094-102>105-117-120-121-131>134-241800-
NORTH CENTRAL TEXAS

CITY           SKY/WX    TMP DP  RH WIND       PRES   REMARKS
SHRMAN/DENISON FAIR      82  71  68 SW3       30.03F
GAINESVILLE    FAIR      82  69  66 CALM      30.04F
BOWIE          FAIR      81  72  72 CALM      30.03S
BRIDGEPORT     FAIR      84  71  65 E6        30.03S
DECATUR        FAIR      84  72  66 NE3       30.03  HX  90
DENTON         FAIR      86  74  67 VRB3      30.00F HX  94
MCKINNEY       FAIR      80  74  81 S5        30.02S
BONHAM         FAIR      82  72  69 SE7       30.02S
GREENVILLE     FAIR      82  72  69 SE7       30.02F
ROCKWALL       FAIR      79  74  83 SE8       30.03S
TERRELL        FAIR      79  72  79 S3        30.02S
WAXAHACHIE     PTSUNNY   78  75  91 SE3       30.03S
CLEBURNE       FAIR      79  75  89 SE6       30.04S
GRANBURY       PTSUNNY   82  72  73 SE5       30.03S
$$

TXZ083>090-098>101-113>116-127>130-139>142-154-155-241800-
WESTERN NORTH TEXAS

CITY           SKY/WX    TMP DP  RH WIND       PRES   REMARKS
WICHITA FALLS  FAIR      84  71  65 SE9       30.01F
WF-KICKAPOO    FAIR      84  72  66 E9        30.04F HX  90
VERNON         FAIR      84  67  56 SE6       30.02S
ABILENE        FAIR      82  66  58 SW8       30.03R
ABILENE-DYESS  CLOUDY    84  68  59 SE6       30.01R
GRAHAM         FAIR      89  70  53 E6        29.99F HX  94
BRECKENRIDGE   FAIR      91  66  44 S6        30.01S HX  93
CISCO          FAIR      82  68  61 VRB5      30.03S
EASTLAND       PTSUNNY   85  69  59 S7        30.03S
RANGER         FAIR      84  69  60 SE6       30.04S
MINERAL WELLS  FAIR      85  72  65 S7        30.00S HX  91
STEPHENVILLE   PTSUNNY   81  71  71 SE7       30.06S
COMANCHE       PTSUNNY   82  72  71 E7        30.04S
BROWNWOOD      FAIR      81  70  69 CALM      30.02S
COLEMAN        FAIR      83  67  58 S5        30.03S
$$

TXZ143>147-156>162-174-175-241800-
CENTRAL TEXAS

CITY           SKY/WX    TMP DP  RH WIND       PRES   REMARKS
WACO           CLOUDY    86  74  67 W7        30.00R HX  94
WACO-TSTC      CLOUDY    84  73  70 W6        30.00R HX  91
WACO-MCGREGOR  FAIR      86  74  67 SW5       30.01R HX  94
HILLSBORO      LGT RAIN  79  73  82 E3        30.03R
CORSICANA      CLOUDY    82  74  76 NE5       30.03R
MEXIA          PTSUNNY   84  74  70 SE6       30.00S HX  91
HEARNE         FAIR      89  73  58 S12       30.01S HX  97
CAMERON        FAIR      92  74  54 SW9       29.99S HX 101
TEMPLE         FAIR      88  74  63 SW6       30.01R HX  96
KILLEEN        PTSUNNY   87  72  61 CALM      30.00R HX  93
KILLEEN-SKYLRK FAIR      86  74  67 W6        30.01R HX  94
FORT HOOD      PTSUNNY   84  73  67 CALM      29.99R HX  90
HAMILTON       PTSUNNY   81  75  83 SE8       30.04S
LAMPASAS       FAIR      84  74  73 SE3       30.01R HX  91
$$

TXZ095>097-106>112-122>126-135>138-148>153-164>167-241800-
EAST TEXAS

CITY           SKY/WX    TMP DP  RH WIND       PRES   REMARKS
PARIS            N/A     82  75  79 SW3       30.02S
SULPHUR SPRNGS FAIR      84  74  72 S12       30.03F HX  92
MOUNT PLEASANT FAIR      84  71  65 SW8       30.02F
GILMER         PTSUNNY   82  71  69 S9        30.02F
MINEOLA        FAIR      82  73  74 S9        30.01F
TYLER          PTSUNNY   81  73  76 S8        30.02F
LONGVIEW       PTSUNNY   79  71  76 SW9       30.02S
MARSHALL         N/A     78  69  73 SW8       30.04S
ATHENS         PTSUNNY   79  72  78 S6        30.01F
PALESTINE      FAIR      81  75  81 S5        30.03F
JACKSONVILLE   FAIR      76  73  92 S13G18    30.05R
HENDERSON      CLOUDY    78  70  77 SW6       30.04S
CENTER         PTSUNNY   77  75  95 W3        30.03F
NACOGDOCHES    FAIR      73  72  94 S8        29.99F
LUFKIN         LGT RAIN  73  72  96 S7        30.03F FOG
$$

SUPPLEMENTAL OBSERVATIONS (NWS FORT WORTH AREA)

CITY           SKY/WX    TMP DP  RH WIND       PRES   REMARKS
DENISON DAM      N/A     82  68  61 W3          N/A
CADDO GRASSLND   N/A     82  72  69 S5          N/A
PAT MAYSE LAKE   N/A     79  77  94 S7          N/A
GREENVILLE       N/A     84  72  65 S3          N/A
CEDAR HILL       N/A     82  72  69 SE3         N/A
LBJ GRASSLAND    N/A     88  73  62 N3          N/A  HX  96
POSSUM KINGDOM   N/A     90  70  51 E8          N/A  HX  95
GRANBURY         N/A     82  72  69 SE6         N/A
COMANCHE         N/A     82  70  65 E7          N/A
MCGREGOR         N/A     88  73  62 SW2         N/A  HX  96
TEMPLE           N/A     88  72  58 SW7G15      N/A  HX  94
LAKE LIMESTONE   N/A     84  72  65 S5G15       N/A
ATHENS           N/A     81  73  78 S7          N/A
$$

SUPPLEMENTAL OBSERVATIONS (NWS NORMAN AREA)

CITY           SKY/WX    TMP DP  RH WIND       PRES   REMARKS
GOODLETT         N/A     86  67  52 E7G13     30.01F
ODELL            N/A     84  73  69 E5        30.03S HX  90
CROWELL          N/A     88  70  55 E5        30.02S HX  92
KNOX CITY        N/A     88  67  49 S3        30.02S HX  90
SEYMOUR          N/A     91  66  44 SE7       30.01S HX  93
MILLERS CREEK    N/A     86  72  62 E5          N/A  HX  92
$$

SUPPLEMENTAL OBSERVATIONS (NWS SAN ANGELO AREA)

CITY           SKY/WX    TMP DP  RH WIND       PRES   REMARKS
WEINERT          N/A     87  70  58 SE6       30.02S HX  91
HASKELL          N/A     87  66  50 E5        30.02S
THROCKMORTON     N/A     87  72  61 SE3       30.02S HX  93
STAMFORD         N/A     89  68  49 S1        30.02S HX  93
CLYDE            N/A     86  67  53 SW5       30.06R
HAMBY            N/A     86  64  48 SW8         N/A
IVIE RESERVOIR   N/A     90  66  45 SW7         N/A  HX  92
COLORADO BEND    N/A     88  72  58 SW6         N/A  HX  94
$$

SUPPLEMENTAL OBSERVATIONS (NWS SHREVEPORT AREA)

CITY           SKY/WX    TMP DP  RH WIND       PRES   REMARKS
CLARKSVILLE      N/A     84  73  70 SE7         N/A  HX  91
TEXARKANA        N/A     84  77  79 S5          N/A  HX  94
LINDEN           N/A     81  72  74 SW5         N/A
CADDO LAKE       N/A     84  72  65 W6          N/A
GILMER           N/A     84  70  61 S5G17       N/A
HENDERSON        N/A     79  73  83 SW10        N/A
LUFKIN           N/A     73  72  94 MISG        N/A
N SABINE NF      N/A     75  70  83 MISG        N/A
S SABINE NF      N/A     81  73  78 S3          N/A
$$

SUPPLEMENTAL OBSERVATIONS ARE A COLLECTION OF AUTOMATED INSTRUMENTS
THAT ARE MAINTAINED BY A VARIETY OF FEDERAL AND STATE AGENCIES.
CERTAIN ELEMENTS...SUCH AS HUMIDITY VALUES AND SUSTAINED WIND
SPEEDS...MAY BE APPROXIMATED.





USA.gov is the U.S. government's official web portal to all federal, state and local government web resources and services.